Weather History for Franklin, NC

Change the Weather History Date:

Tuesday, July 30, 2013

  Actual Average (KTOC) Record (KTOC)
Temperature  
Mean Temperature 68 °F -  
Max Temperature 84 °F 86 °F - (-1)
Min Temperature 52 °F 67 °F - (-1)
Cooling Degree Days 3    
Growing Degree Days 18 (Base 50)    
Moisture  
Dew Point 58 °F    
Average Humidity 79    
Maximum Humidity 99    
Minimum Humidity 35    
Precipitation  
Precipitation 0.00 in - - ()
Sea Level Pressure  
Sea Level Pressure 30.27 in    
Wind  
Wind Speed 0 mph (North)    
Max Wind Speed 5 mph    
Max Gust Speed -    
Visibility 8 miles    
Events Fog    
Averages and records for this station are not official NWS values.
T = Trace of Precipitation, MM = Missing Value Source: NWS Daily Summary

Daily Weather History Graph

Daily Weather History Graph

Search for Another Location

Airport:

Trip Planner

Search our weather history database for the weather conditions in past years. The results will help you decide how hot, cold, wet, or windy it might be!

Date:

Astronomy

Jul. 30, 2013 Rise Set
Actual Time 6:41 AM EDT 8:38 PM EDT
Civil Twilight 6:13 AM EDT 9:06 PM EDT
Nautical Twilight 5:39 AM EDT 9:40 PM EDT
Astronomical Twilight 5:02 AM EDT 10:16 PM EDT
Moon 12:56 AM EDT (7/30) 2:58 PM EDT (7/30)
Length of Visible Light 14h 53m
Length of Day
13h 57m
Last Quarter, 41% of the Moon is Illuminated
Jul 30
Last Quarter
Aug 6
New
Aug 14
First Quarter
Aug 20
Full
Aug 28
Last Quarter

Hourly Weather History & Observations

Time (EDT) Temp. Heat Index Dew Point Humidity Pressure Visibility Wind Dir Wind Speed Gust Speed Precip Events Conditions
12:15 AM 57.6 °F - 56.3 °F 96% 30.29 in 10.0 mi Calm Calm - N/A   Clear
12:35 AM 57.6 °F - 56.7 °F 97% 30.29 in 10.0 mi Calm Calm - N/A   Clear
12:55 AM 56.5 °F - 55.6 °F 97% 30.29 in 10.0 mi Calm Calm - N/A   Clear
1:15 AM 55.9 °F - 55.2 °F 97% 30.29 in 7.0 mi Calm Calm - N/A   Clear
1:35 AM 55.9 °F - 55.4 °F 98% 30.28 in 10.0 mi Calm Calm - N/A   Clear
1:55 AM 55.4 °F - 54.9 °F 98% 30.28 in 7.0 mi Calm Calm - N/A   Scattered Clouds
2:15 AM 55.0 °F - 54.5 °F 98% 30.27 in 10.0 mi Calm Calm - N/A   Mostly Cloudy
2:35 AM 55.4 °F - 54.7 °F 97% 30.27 in 10.0 mi Calm Calm - N/A   Overcast
2:55 AM 54.5 °F - 54.0 °F 98% 30.27 in 10.0 mi Calm Calm - N/A   Scattered Clouds
3:15 AM 54.1 °F - 53.8 °F 99% 30.27 in 7.0 mi Calm Calm - N/A   Clear
3:35 AM 54.5 °F - 54.0 °F 98% 30.27 in 1.2 mi Calm Calm - N/A   Scattered Clouds
3:55 AM 54.3 °F - 53.8 °F 98% 30.28 in 0.8 mi Calm Calm - N/A   Overcast
4:15 AM 53.6 °F - 53.1 °F 98% 30.28 in 10.0 mi Calm Calm - N/A   Overcast
4:35 AM 53.8 °F - 53.2 °F 98% 30.28 in 10.0 mi Calm Calm - N/A   Overcast
4:55 AM 53.8 °F - 53.1 °F 97% 30.29 in 0.8 mi Calm Calm - N/A   Overcast
5:15 AM 53.4 °F - 52.7 °F 97% 30.29 in 0.8 mi Calm Calm - N/A   Overcast
5:35 AM 53.8 °F - 53.1 °F 97% 30.29 in 1.0 mi Calm Calm - N/A   Overcast
5:55 AM 53.8 °F - 53.1 °F 97% 30.30 in 0.2 mi Calm Calm - N/A Fog Fog
6:15 AM 53.6 °F - 52.9 °F 97% 30.30 in 0.2 mi Calm Calm - N/A Fog Fog
6:35 AM 53.6 °F - 52.7 °F 97% 30.30 in 0.2 mi Calm Calm - N/A Fog Fog
6:55 AM 53.2 °F - 52.3 °F 97% 30.31 in 0.2 mi Calm Calm - N/A Fog Fog
7:15 AM 52.9 °F - 52.0 °F 97% 30.31 in 0.2 mi Calm Calm - N/A Fog Fog
7:35 AM 53.1 °F - 52.2 °F 97% 30.31 in 0.2 mi Calm Calm - N/A Fog Fog
7:55 AM 53.1 °F - 52.2 °F 97% 30.32 in 0.2 mi Calm Calm - N/A Fog Fog
8:15 AM 53.2 °F - 52.3 °F 97% 30.32 in 0.2 mi Calm Calm - N/A Fog Fog
8:35 AM 54.1 °F - 53.2 °F 97% 30.32 in 0.2 mi Calm Calm - N/A Fog Fog
8:55 AM 55.0 °F - 54.0 °F 96% 30.33 in 0.2 mi Calm Calm - N/A Fog Fog
9:15 AM 56.3 °F - 55.0 °F 96% 30.33 in 0.2 mi Calm Calm - N/A Fog Fog
9:35 AM 57.4 °F - 56.3 °F 96% 30.32 in 0.2 mi Calm Calm - N/A Fog Fog
9:55 AM 59.5 °F - 58.6 °F 97% 30.32 in 10.0 mi Calm Calm - N/A   Clear
10:15 AM 60.1 °F - 59.5 °F 98% 30.31 in 10.0 mi Calm Calm - N/A   Clear
10:35 AM 62.8 °F - 61.7 °F 96% 30.31 in 10.0 mi Calm Calm - N/A   Clear
10:55 AM 65.8 °F - 57.2 °F 74% 30.30 in 10.0 mi Calm Calm - N/A   Clear
11:15 AM 67.8 °F - 56.5 °F 67% 30.29 in 10.0 mi Calm Calm - N/A   Clear
11:35 AM 70.2 °F - 58.1 °F 65% 30.29 in 10.0 mi Calm Calm - N/A   Clear
11:55 AM 71.8 °F - 57.2 °F 60% 30.29 in 10.0 mi Calm Calm - N/A   Clear
12:15 PM 73.9 °F - 57.9 °F 57% 30.28 in 10.0 mi Calm Calm - N/A   Clear
12:55 PM 77.4 °F - 56.5 °F 48% 30.27 in 10.0 mi Calm Calm - N/A   Clear
1:15 PM 77.5 °F - 55.9 °F 47% 30.27 in 10.0 mi Calm Calm - N/A   Clear
1:35 PM 79.0 °F - 58.3 °F 49% 30.26 in 10.0 mi Calm Calm - N/A   Clear
2:15 PM 80.2 °F 80.4 °F 56.5 °F 44% 30.25 in 10.0 mi Calm Calm - N/A   Clear
2:35 PM 80.8 °F 80.9 °F 56.8 °F 44% 30.25 in 10.0 mi Calm Calm - N/A   Clear
2:55 PM 82.2 °F 82.0 °F 57.4 °F 43% 30.24 in 10.0 mi ENE 3.5 mph - N/A   Clear
3:15 PM 81.9 °F 81.9 °F 58.8 °F 45% 30.24 in 10.0 mi Calm Calm - N/A   Clear
3:35 PM 82.0 °F 82.1 °F 58.5 °F 45% 30.24 in 10.0 mi Calm Calm - N/A   Clear
3:55 PM 83.3 °F 83.2 °F 59.2 °F 44% 30.23 in 10.0 mi Calm Calm - N/A   Clear
4:15 PM 83.3 °F 83.4 °F 59.9 °F 45% 30.23 in 10.0 mi Calm Calm - N/A   Clear
4:35 PM 83.5 °F 83.2 °F 58.8 °F 43% 30.23 in 10.0 mi Calm Calm - N/A   Clear
4:55 PM 83.7 °F 83.3 °F 58.6 °F 42% 30.22 in 10.0 mi Calm Calm - N/A   Clear
5:15 PM 83.7 °F 82.5 °F 54.5 °F 37% 30.22 in 10.0 mi NNW 4.6 mph - N/A   Scattered Clouds
5:35 PM 84.2 °F 82.8 °F 53.8 °F 35% 30.22 in 10.0 mi NNW 3.5 mph - N/A   Mostly Cloudy
5:55 PM 83.1 °F 82.3 °F 55.6 °F 39% 30.21 in 10.0 mi Calm Calm - N/A   Scattered Clouds
6:15 PM 79.0 °F - 62.1 °F 56% 30.21 in 10.0 mi Calm Calm - N/A   Clear
6:35 PM 77.0 °F - 63.9 °F 64% 30.21 in 10.0 mi Calm Calm - N/A   Clear
6:55 PM 77.0 °F - 65.1 °F 67% 30.21 in 10.0 mi Calm Calm - N/A   Clear
7:15 PM 76.1 °F - 65.1 °F 69% 30.21 in 10.0 mi Calm Calm - N/A   Clear
7:35 PM 74.8 °F - 65.7 °F 73% 30.21 in 10.0 mi Calm Calm - N/A   Scattered Clouds
7:55 PM 73.2 °F - 64.9 °F 75% 30.21 in 10.0 mi Calm Calm - N/A   Scattered Clouds
8:15 PM 72.3 °F - 64.4 °F 76% 30.22 in 10.0 mi Calm Calm - N/A   Clear
8:35 PM 69.8 °F - 63.7 °F 81% 30.23 in 10.0 mi Calm Calm - N/A   Clear
8:55 PM 69.8 °F - 63.9 °F 81% 30.23 in 10.0 mi Calm Calm - N/A   Clear
9:15 PM 68.7 °F - 63.5 °F 83% 30.23 in 10.0 mi Calm Calm - N/A   Scattered Clouds
9:35 PM 67.8 °F - 63.1 °F 85% 30.24 in 10.0 mi Calm Calm - N/A   Scattered Clouds
9:55 PM 68.4 °F - 64.2 °F 87% 30.24 in 10.0 mi Calm Calm - N/A   Scattered Clouds
10:15 PM 66.7 °F - 63.0 °F 88% 30.25 in 10.0 mi Calm Calm - N/A   Scattered Clouds
10:35 PM 66.4 °F - 63.0 °F 89% 30.25 in 10.0 mi Calm Calm - N/A   Clear
10:55 PM 66.4 °F - 63.1 °F 89% 30.25 in 10.0 mi Calm Calm - N/A   Clear
11:15 PM 66.6 °F - 63.5 °F 90% 30.25 in 10.0 mi Calm Calm - N/A   Scattered Clouds
11:35 PM 66.9 °F - 63.5 °F 89% 30.25 in 10.0 mi Calm Calm - N/A   Light Drizzle
11:55 PM 66.7 °F - 64.9 °F 94% 30.25 in 10.0 mi Calm Calm - N/A   Light Drizzle